TimeCDT,TemperatureF,Dew PointF,Humidity,Sea Level PressureIn,VisibilityMPH,Wind Direction,Wind SpeedMPH,Gust SpeedMPH,PrecipitationIn,Events,Conditions,WindDirDegrees,DateUTC
12:15 AM,71.6,68.0,88,29.92,10.0,South,4.6,-,N/A,,Clear,170,2013-07-24 05:15:00
12:35 AM,71.6,68.0,88,29.92,10.0,SSW,4.6,-,N/A,,Clear,200,2013-07-24 05:35:00
12:55 AM,71.6,68.0,88,29.94,10.0,WSW,4.6,-,N/A,,Clear,240,2013-07-24 05:55:00
1:15 AM,71.6,68.0,88,29.94,10.0,SW,3.5,-,N/A,,Clear,230,2013-07-24 06:15:00
1:35 AM,71.6,68.0,88,29.94,10.0,SW,4.6,-,N/A,,Clear,230,2013-07-24 06:35:00
1:55 AM,71.6,68.0,88,29.93,10.0,SW,3.5,-,N/A,,Clear,230,2013-07-24 06:55:00
2:15 AM,71.6,68.0,88,29.94,10.0,WSW,8.1,-,N/A,,Mostly Cloudy,250,2013-07-24 07:15:00
2:35 AM,71.6,68.0,88,29.94,10.0,WSW,8.1,19.6,N/A,Rain,Light Rain,240,2013-07-24 07:35:00
2:55 AM,71.6,68.0,88,29.92,9.0,SW,11.5,17.3,0.01,Rain,Light Rain,220,2013-07-24 07:55:00
3:15 AM,69.8,68.0,94,29.92,10.0,SW,10.4,18.4,N/A,Rain,Light Rain,220,2013-07-24 08:15:00
3:35 AM,69.8,68.0,94,29.88,9.0,SSW,13.8,26.5,N/A,Rain,Light Rain,200,2013-07-24 08:35:00
3:55 AM,69.8,68.0,94,29.84,8.0,SSW,15.0,36.8,N/A,Rain,Light Rain,200,2013-07-24 08:55:00
4:15 AM,69.8,68.0,94,29.95,10.0,NW,12.7,20.7,N/A,,Mostly Cloudy,310,2013-07-24 09:15:00
4:35 AM,69.8,68.0,94,29.94,10.0,NW,8.1,-,N/A,,Mostly Cloudy,310,2013-07-24 09:35:00
4:55 AM,69.8,68.0,94,29.93,10.0,WNW,5.8,-,N/A,,Partly Cloudy,290,2013-07-24 09:55:00
5:15 AM,69.8,68.0,94,29.93,10.0,NW,5.8,-,N/A,,Partly Cloudy,310,2013-07-24 10:15:00
5:35 AM,69.8,68.0,94,29.93,10.0,NW,10.4,-,N/A,,Clear,310,2013-07-24 10:35:00
5:55 AM,69.8,68.0,94,29.93,10.0,NW,8.1,-,N/A,,Clear,320,2013-07-24 10:55:00
6:15 AM,69.8,68.0,94,29.94,10.0,NW,6.9,-,N/A,,Clear,320,2013-07-24 11:15:00
6:35 AM,69.8,68.0,94,29.95,10.0,NW,5.8,-,N/A,,Clear,310,2013-07-24 11:35:00
6:48 AM,68.0,68.0,100,29.95,10.0,NW,5.8,-,N/A,,Overcast,310,2013-07-24 11:48:00
7:45 AM,71.6,69.8,94,29.98,10.0,Calm,Calm,-,N/A,,Overcast,0,2013-07-24 12:45:00
8:45 AM,73.4,69.8,88,30.00,10.0,NW,5.8,-,N/A,,Overcast,310,2013-07-24 13:45:00
9:45 AM,75.2,69.8,83,30.01,10.0,NNW,4.6,-,N/A,,Overcast,340,2013-07-24 14:45:00
10:45 AM,75.2,68.0,78,30.03,10.0,NNW,5.8,-,N/A,,Overcast,330,2013-07-24 15:45:00
11:49 AM,77.0,66.2,69,30.04,10.0,NNW,12.7,-,N/A,,Mostly Cloudy,330,2013-07-24 16:49:00
12:45 PM,80.6,66.2,61,30.03,10.0,North,9.2,-,N/A,,Mostly Cloudy,350,2013-07-24 17:45:00
1:45 PM,82.4,66.2,58,30.02,10.0,North,11.5,19.6,N/A,,Mostly Cloudy,350,2013-07-24 18:45:00
2:50 PM,82.4,66.2,58,30.01,10.0,North,11.5,-,N/A,,Overcast,360,2013-07-24 19:50:00
3:45 PM,82.4,66.2,58,30.01,10.0,NNW,6.9,-,N/A,,Mostly Cloudy,340,2013-07-24 20:45:00
4:45 PM,84.2,66.2,55,30.00,10.0,North,6.9,-,N/A,,Mostly Cloudy,360,2013-07-24 21:45:00
5:45 PM,82.4,68.0,62,29.99,10.0,ESE,5.8,-,N/A,,Scattered Clouds,120,2013-07-24 22:45:00
6:45 PM,80.6,68.0,65,29.99,10.0,SE,4.6,-,N/A,,Scattered Clouds,130,2013-07-24 23:45:00
7:55 PM,80.6,68.0,65,29.99,10.0,SE,4.6,-,N/A,,Scattered Clouds,130,2013-07-25 00:55:00
8:45 PM,77.0,69.8,78,30.01,10.0,Calm,Calm,-,N/A,,Mostly Cloudy,0,2013-07-25 01:45:00
8:55 PM,77.0,69.8,78,30.02,10.0,Calm,Calm,-,N/A,,Mostly Cloudy,0,2013-07-25 01:55:00
9:15 PM,75.2,69.8,83,30.02,10.0,Calm,Calm,-,N/A,,Scattered Clouds,0,2013-07-25 02:15:00
9:35 PM,75.2,68.0,78,30.03,10.0,Calm,Calm,-,N/A,,Partly Cloudy,0,2013-07-25 02:35:00
9:55 PM,75.2,68.0,78,30.04,10.0,Calm,Calm,-,N/A,,Mostly Cloudy,0,2013-07-25 02:55:00
10:15 PM,73.4,68.0,83,30.04,10.0,Calm,Calm,-,N/A,,Scattered Clouds,0,2013-07-25 03:15:00
10:35 PM,73.4,66.2,78,30.04,10.0,East,3.5,-,N/A,,Clear,90,2013-07-25 03:35:00
10:55 PM,73.4,64.4,73,30.05,10.0,Calm,Calm,-,N/A,,Clear,0,2013-07-25 03:55:00
11:15 PM,73.4,64.4,73,30.05,10.0,East,3.5,-,N/A,,Clear,90,2013-07-25 04:15:00
11:35 PM,73.4,62.6,69,30.05,10.0,East,4.6,-,N/A,,Partly Cloudy,90,2013-07-25 04:35:00
11:55 PM,71.6,62.6,73,30.06,10.0,East,3.5,-,N/A,,Partly Cloudy,100,2013-07-25 04:55:00